COSMOS 2499 DEB, 56567

Orbit data source: Space-Track

COSMOS 2499 DEB, 56567 is space debris in LEO originally from a launch on Fri, 23 May 2014 UTC launched from the Plesetsk Missile And Space Complex (PKMTR). Debris objects in space refer to the collection of defunct objects orbiting the Earth. Examples of debris include non-operational satellites, rocket bodies, and fragments generated from explosions, collisions, or faulty payload assembly.

Loading next visibility...
Identifier
56567, 2014-028BA
Orbit
LEO
Country
Flag of CISCIS
Related business
Manufacturer
TsNIIKhM
Mission
Spacecraft
Bus & Motor
Unknown
Mass
Unknown
Launch date (UTC)
2014-05-23 (12 years ago)
Launch vehicle
Unknown
Launch site
Plesetsk Missile And Space Complex (PKMTR)
Object type
Payload
Rocket body
Debris
Shape & HBR
Unknown shape, 0.1 m
Radar Cross Section
Small (<0.1 m²)

Expand to show TLE details & history
Last TLE update: 3 days ago

TLE from 3 days ago
0 COSMOS 2499 DEB
1 56567U 14028BA  25347.91868810  .00004830  00000-0  17437-1 0  9994
2 56567  82.5908  46.1883 0259424 118.8938 243.8459 12.83635380135190
Epoch: 2025-12-13T22:02Z
TLE epoch observation values (Epoch: 2025-12-13T22:02:54.651Z)
Latitude
-0.00005°
Longitude
-7.37848°
Altitude
1,421.884 km
Speed
7.107 km/s
True Right ascension
03h 04m 45s
True Declination
0° 00' 00"
Sunlit
Object was in full shadow at epoch
Visualization orbit readout
Latitude
Unknown
Longitude
Unknown
Altitude
Unknown
Speed
Unknown
Apparent Right ascension
Unknown
Apparent Declination
Unknown
Sunlit
N/A
Visualization observer readout
Local Sidereal Time
11:11:20
Azimuth
Unknown
Elevation
Unknown
Doppler factor
Unknown
Orbital elements
Apogee altitude
1,523.992 km
Perigee altitude
1,124.359 km
Semi-major axis
7,702.312 km
Eccentricity
0.02594
Inclination
82.5908°
RAAN
46.1883°
Arg. of periapsis
118.8938°
True anomaly
241.21604°
Mean anomaly
243.8459°
Eccentric anomaly
242.52713°
Mean motion
3.21079 °/min
Orbital period
112.12 mins
BSTAR
0.017437
Loading maneuver chart data...
Computing Atmospheric mass density...
Loading historical data...
Loading historical data...
Loading historical data...
Loading historical data...
Loading historical data...
Loading historical data...
Loading historical data...

Documentation

Showing up to 5 results
|